Simultaneous Nadir Overpasses (SNOs) Predictions

Prediction of SNOs between NOAA-19 and METOP-C Satellite Orbit:

Table of predicted SNOs for the next 14.0 days since TLE Epoch: 8/14/2021
Index Date (NOAA-19) Time (NOAA-19) Lat,Lon (NOAA-19) SZA (NOAA-19 ) Date (METOP-C) Time (METOP-C) Lat,Lon (METOP-C) SZA (METOP-C ) Distance(km) Time Diff (sec)
1 08/22/2021 20:03:13 -80.62, 88.39 109.74 08/22/2021 20:04:21 -80.61, 88.44 109.71 0.95 68
2 08/22/2021 20:54:09 80.61,-104.08 70.29 08/22/2021 20:55:02 80.62,-104.14 70.32 1.92 53
3 08/22/2021 21:45:13 -80.61, 62.98 109.71 08/22/2021 21:45:43 -80.60, 62.95 109.71 1.28 30
4 08/22/2021 22:36:09 80.60,-129.48 70.32 08/22/2021 22:36:24 80.61,-129.63 70.32 2.90 15
5 08/22/2021 23:27:13 -80.61, 37.58 109.68 08/22/2021 23:27:05 -80.59, 37.45 109.71 2.93 8
6 08/23/2021 00:18:10 80.61,-155.23 70.33 08/23/2021 00:17:46 80.60,-155.13 70.32 2.45 24
7 08/23/2021 01:09:13 -80.61, 12.17 109.65 08/23/2021 01:08:26 -80.60, 12.29 109.66 2.27 47



Historial Predications of SNOs between NOAA-19 and METOP-C
